Weather History for Walnut Ridge, AR

Change the Weather History Date:

Thursday, March 27, 2014

  Actual Average Record
Temperature  
Mean Temperature 53 °F -  
Max Temperature 60 °F 61 °F 80 °F (2012)
Min Temperature 46 °F 43 °F 26 °F (2001)
Degree Days  
Heating Degree Days 12    
Growing Degree Days 3 (Base 50)    
Moisture  
Dew Point 43 °F    
Average Humidity 69    
Maximum Humidity 94    
Minimum Humidity 50    
Precipitation  
Precipitation 0.07 in - - ()
Sea Level Pressure  
Sea Level Pressure 29.87 in    
Wind  
Wind Speed 17 mph (South)    
Max Wind Speed 31 mph    
Max Gust Speed 37 mph    
Visibility 10 miles    
Events      
Averages and records for this station are not official NWS values.
T = Trace of Precipitation, MM = Missing Value Source: NWS Daily Summary

Daily Weather History Graph

Daily Weather History Graph

Search for Another Location

Airport:

Trip Planner

Search our weather history database for the weather conditions in past years. The results will help you decide how hot, cold, wet, or windy it might be!

Date:

Astronomy

Mar. 27, 2014 Rise Set
Actual Time 6:57 AM CDT 7:21 PM CDT
Civil Twilight 6:31 AM CDT 7:47 PM CDT
Nautical Twilight 6:01 AM CDT 8:17 PM CDT
Astronomical Twilight 5:30 AM CDT 8:48 PM CDT
Moon 4:42 AM CDT 4:14 PM CDT
Length of Visible Light 13h 15m
Length of Day
12h 24m
Waning Crescent, 13% of the Moon is Illuminated
Mar 27
Waning Crescent
Mar 30
New
Apr 7
First Quarter
Apr 15
Full
Apr 22
Last Quarter

Hourly Weather History & Observations

Time (CDT) Temp. Windchill Dew Point Humidity Pressure Visibility Wind Dir Wind Speed Gust Speed Precip Events Conditions
12:15 AM 46.4 °F 42.4 °F 33.8 °F 62% 30.05 in 10.0 mi SSE 8.1 mph - N/A   Overcast
12:35 AM 46.4 °F 42.4 °F 33.8 °F 62% 30.04 in 10.0 mi SSE 8.1 mph - N/A   Overcast
12:55 AM 48.2 °F - 32.0 °F 54% 30.04 in 10.0 mi SSE 12.7 mph - N/A   Overcast
1:15 AM 48.2 °F - 32.0 °F 54% 30.03 in 10.0 mi SSE 12.7 mph - N/A   Overcast
1:35 AM 48.2 °F - 32.0 °F 54% 30.01 in 10.0 mi SSE 15.0 mph - N/A   Overcast
1:55 AM 48.2 °F - 30.2 °F 50% 30.00 in 10.0 mi SSE 15.0 mph - N/A   Overcast
2:15 AM 48.2 °F - 30.2 °F 50% 29.99 in 10.0 mi SSE 15.0 mph - N/A   Overcast
2:35 AM 48.2 °F - 30.2 °F 50% 29.98 in 10.0 mi SSE 16.1 mph - N/A   Overcast
2:55 AM 48.2 °F - 30.2 °F 50% 29.97 in 10.0 mi South 16.1 mph - N/A   Overcast
3:15 AM 48.2 °F - 32.0 °F 54% 29.97 in 10.0 mi South 15.0 mph - N/A   Overcast
3:35 AM 48.2 °F - 32.0 °F 54% 29.96 in 10.0 mi South 15.0 mph 19.6 mph N/A   Overcast
3:55 AM 48.2 °F - 32.0 °F 54% 29.96 in 10.0 mi South 17.3 mph - N/A   Mostly Cloudy
4:15 AM 48.2 °F - 32.0 °F 54% 29.95 in 10.0 mi South 15.0 mph - N/A   Overcast
4:35 AM 48.2 °F - 33.8 °F 58% 29.94 in 10.0 mi South 16.1 mph - N/A   Mostly Cloudy
4:55 AM 48.2 °F - 32.0 °F 54% 29.93 in 10.0 mi South 17.3 mph - N/A   Partly Cloudy
5:15 AM 48.2 °F - 33.8 °F 58% 29.93 in 10.0 mi South 17.3 mph - N/A   Clear
5:35 AM 46.4 °F 39.5 °F 32.0 °F 57% 29.93 in 10.0 mi South 17.3 mph - N/A   Clear
5:55 AM 46.4 °F 40.1 °F 32.0 °F 57% 29.93 in 10.0 mi South 15.0 mph - N/A   Clear
6:15 AM 48.2 °F - 33.8 °F 58% 29.93 in 10.0 mi South 15.0 mph - N/A   Mostly Cloudy
6:35 AM 48.2 °F - 33.8 °F 58% 29.93 in 10.0 mi South 15.0 mph 23.0 mph N/A   Overcast
6:55 AM 48.2 °F - 33.8 °F 58% 29.93 in 10.0 mi South 19.6 mph - N/A   Overcast
7:15 AM 48.2 °F - 33.8 °F 58% 29.94 in 10.0 mi South 19.6 mph - N/A   Overcast
7:35 AM 48.2 °F - 33.8 °F 58% 29.94 in 10.0 mi South 20.7 mph - N/A   Overcast
7:55 AM 48.2 °F - 33.8 °F 58% 29.94 in 10.0 mi South 16.1 mph 21.9 mph N/A   Overcast
8:15 AM 50.0 °F - 35.6 °F 58% 29.94 in 10.0 mi South 25.3 mph 31.1 mph N/A   Overcast
8:35 AM 51.8 °F - 35.6 °F 54% 29.94 in 10.0 mi South 23.0 mph 28.8 mph N/A   Overcast
8:55 AM 51.8 °F - 35.6 °F 54% 29.93 in 10.0 mi South 25.3 mph 32.2 mph N/A   Overcast
9:15 AM 51.8 °F - 37.4 °F 58% 29.93 in 10.0 mi South 20.7 mph 29.9 mph N/A   Overcast
9:35 AM 51.8 °F - 37.4 °F 58% 29.93 in 10.0 mi South 25.3 mph 31.1 mph N/A   Overcast
9:55 AM 51.8 °F - 37.4 °F 58% 29.93 in 10.0 mi South 21.9 mph 31.1 mph N/A   Overcast
10:15 AM 51.8 °F - 37.4 °F 58% 29.92 in 10.0 mi South 23.0 mph 29.9 mph N/A   Overcast
10:35 AM 53.6 °F - 39.2 °F 58% 29.91 in 10.0 mi South 25.3 mph 32.2 mph N/A   Overcast
10:55 AM 53.6 °F - 39.2 °F 58% 29.91 in 10.0 mi South 24.2 mph 31.1 mph N/A   Overcast
11:15 AM 55.4 °F - 41.0 °F 58% 29.91 in 10.0 mi South 26.5 mph 33.4 mph N/A   Overcast
11:35 AM 53.6 °F - 41.0 °F 62% 29.91 in 10.0 mi South 31.1 mph 35.7 mph N/A   Overcast
11:55 AM 53.6 °F - 42.8 °F 67% 29.90 in 10.0 mi South 21.9 mph 34.5 mph N/A   Overcast
12:15 PM 55.4 °F - 42.8 °F 63% 29.89 in 10.0 mi South 24.2 mph 33.4 mph N/A   Overcast
12:35 PM 55.4 °F - 44.6 °F 67% 29.88 in 10.0 mi South 24.2 mph 33.4 mph N/A   Overcast
12:55 PM 57.2 °F - 44.6 °F 63% 29.85 in 10.0 mi South 26.5 mph 36.8 mph N/A   Overcast
1:15 PM 57.2 °F - 46.4 °F 67% 29.84 in 10.0 mi South 26.5 mph 32.2 mph N/A   Overcast
1:35 PM 59.0 °F - 46.4 °F 63% 29.82 in 10.0 mi South 25.3 mph 31.1 mph N/A   Overcast
1:55 PM 60.8 °F - 48.2 °F 63% 29.82 in 10.0 mi South 28.8 mph 35.7 mph N/A   Overcast
2:15 PM 60.8 °F - 48.2 °F 63% 29.80 in 10.0 mi South 21.9 mph 31.1 mph N/A   Overcast
2:35 PM 60.8 °F - 48.2 °F 63% 29.80 in 10.0 mi South 27.6 mph 32.2 mph N/A   Overcast
2:55 PM 60.8 °F - 48.2 °F 63% 29.78 in 10.0 mi South 28.8 mph 36.8 mph N/A   Overcast
3:15 PM 60.8 °F - 48.2 °F 63% 29.79 in 9.0 mi South 21.9 mph 27.6 mph N/A   Mostly Cloudy
3:35 PM 57.2 °F - 51.8 °F 82% 29.78 in 6.0 mi South 25.3 mph 31.1 mph 0.03 in   Mostly Cloudy
3:55 PM 55.4 °F - 51.8 °F 88% 29.79 in 7.0 mi South 20.7 mph - 0.05 in   Mostly Cloudy
4:15 PM 55.4 °F - 51.8 °F 88% 29.80 in 7.0 mi South 16.1 mph - N/A   Overcast
4:35 PM 57.2 °F - 53.6 °F 88% 29.78 in 10.0 mi South 16.1 mph 23.0 mph 0.01 in   Overcast
4:55 PM 57.2 °F - 53.6 °F 88% 29.77 in 10.0 mi South 16.1 mph - 0.01 in   Overcast
5:15 PM 57.2 °F - 53.6 °F 88% 29.76 in 10.0 mi South 20.7 mph 26.5 mph N/A   Mostly Cloudy
5:35 PM 57.2 °F - 53.6 °F 88% 29.75 in 10.0 mi South 20.7 mph - N/A   Overcast
5:55 PM 57.2 °F - 53.6 °F 88% 29.75 in 7.0 mi South 18.4 mph 26.5 mph N/A   Overcast
6:15 PM 57.2 °F - 53.6 °F 88% 29.75 in 10.0 mi South 19.6 mph - N/A   Overcast
6:35 PM 57.2 °F - 53.6 °F 88% 29.75 in 9.0 mi South 17.3 mph 26.5 mph N/A   Overcast
6:55 PM 57.2 °F - 53.6 °F 88% 29.75 in 10.0 mi South 20.7 mph 25.3 mph 0.01 in   Mostly Cloudy
7:15 PM 57.2 °F - 53.6 °F 88% 29.75 in 10.0 mi South 18.4 mph 27.6 mph N/A   Overcast
7:35 PM 57.2 °F - 53.6 °F 88% 29.76 in 10.0 mi South 16.1 mph - N/A   Overcast
7:55 PM 57.2 °F - 53.6 °F 88% 29.76 in 10.0 mi South 16.1 mph - N/A   Overcast
8:15 PM 57.2 °F - 55.4 °F 94% 29.75 in 10.0 mi South 21.9 mph - N/A   Mostly Cloudy
8:35 PM 57.2 °F - 55.4 °F 94% 29.75 in 9.0 mi South 21.9 mph 27.6 mph N/A   Overcast
8:55 PM 57.2 °F - 55.4 °F 94% 29.77 in 8.0 mi South 18.4 mph 25.3 mph N/A   Overcast
9:15 PM 59.0 °F - 55.4 °F 88% 29.78 in 9.0 mi SSW 19.6 mph - N/A   Overcast
9:35 PM 59.0 °F - 55.4 °F 88% 29.78 in 9.0 mi South 18.4 mph - N/A   Overcast
9:55 PM 59.0 °F - 55.4 °F 88% 29.78 in 10.0 mi South 18.4 mph 26.5 mph N/A   Overcast
10:15 PM 59.0 °F - 55.4 °F 88% 29.77 in 9.0 mi South 19.6 mph - N/A   Overcast
10:35 PM 59.0 °F - 55.4 °F 88% 29.77 in 9.0 mi South 21.9 mph 26.5 mph N/A   Scattered Clouds
10:55 PM 60.8 °F - 57.2 °F 88% 29.77 in 10.0 mi South 21.9 mph - N/A   Mostly Cloudy
11:15 PM 60.8 °F - 57.2 °F 88% 29.78 in 10.0 mi South 24.2 mph 31.1 mph N/A   Overcast
11:35 PM 60.8 °F - 57.2 °F 88% 29.78 in 10.0 mi South 20.7 mph - N/A   Overcast
11:55 PM 60.8 °F - 57.2 °F 88% 29.79 in 10.0 mi South 21.9 mph 28.8 mph N/A   Overcast